Time,TemperatureF,DewpointF,PressureIn,WindDirection,WindDirectionDegrees,WindSpeedMPH,WindSpeedGustMPH,Humidity,HourlyPrecipIn,Conditions,Clouds,dailyrainin,SoftwareType,DateUTC
2013-01-25 00:00:00,23.2,-12.9,29.65,ESE,119,3.1,8.7,19,0.00,,,0.00,VWS V13.01,2013-01-25 05:00:00,
2013-01-25 00:05:00,23.2,-12.9,29.65,ESE,110,5.8,10.1,19,0.00,,,0.00,VWS V13.01,2013-01-25 05:05:00,
2013-01-25 00:10:00,23.2,-12.9,29.65,SSE,147,2.7,8.7,19,0.00,,,0.00,VWS V13.01,2013-01-25 05:10:00,
2013-01-25 00:15:00,23.0,-12.1,29.65,East,88,3.6,8.3,20,0.00,,,0.00,VWS V13.01,2013-01-25 05:15:00,
2013-01-25 00:20:00,23.0,-12.1,29.65,East,83,6.3,10.5,20,0.00,,,0.00,VWS V13.01,2013-01-25 05:20:00,
2013-01-25 00:25:00,23.0,-12.1,29.65,East,92,4.0,8.3,20,0.00,,,0.00,VWS V13.01,2013-01-25 05:25:00,
2013-01-25 00:35:00,23.0,-12.1,29.65,SE,136,4.5,8.7,20,0.00,,,0.00,VWS V13.01,2013-01-25 05:35:00,
2013-01-25 00:40:00,23.0,-12.1,29.65,East,89,2.7,8.3,20,0.00,,,0.00,VWS V13.01,2013-01-25 05:40:00,
2013-01-25 00:45:00,23.0,-12.1,29.65,ESE,117,5.8,8.7,20,0.00,,,0.00,VWS V13.01,2013-01-25 05:45:00,
2013-01-25 00:55:00,23.0,-12.1,29.62,ESE,113,8.3,8.3,20,0.00,,,0.00,VWS V13.01,2013-01-25 05:55:00,
2013-01-25 01:00:00,23.2,-12.9,29.62,SE,146,7.6,8.7,19,0.00,,,0.00,VWS V13.01,2013-01-25 06:00:00,
2013-01-25 01:05:00,23.2,-12.9,29.62,SE,128,8.3,11.0,19,0.00,,,0.00,VWS V13.01,2013-01-25 06:05:00,
2013-01-25 01:10:00,23.2,-12.9,29.62,SE,139,6.3,9.2,19,0.00,,,0.00,VWS V13.01,2013-01-25 06:10:00,
2013-01-25 01:15:00,23.2,-12.9,29.62,ESE,117,5.4,9.6,19,0.00,,,0.00,VWS V13.01,2013-01-25 06:15:00,
2013-01-25 01:20:00,23.2,-12.9,29.59,ESE,118,7.6,13.2,19,0.00,,,0.00,VWS V13.01,2013-01-25 06:20:00,
2013-01-25 01:25:00,23.0,-12.1,29.59,ESE,104,6.3,10.5,20,0.00,,,0.00,VWS V13.01,2013-01-25 06:25:00,
2013-01-25 01:30:00,23.0,-12.1,29.59,ESE,107,6.3,11.0,20,0.00,,,0.00,VWS V13.01,2013-01-25 06:30:00,
2013-01-25 01:35:00,23.0,-12.1,29.59,ESE,122,6.3,8.3,20,0.00,,,0.00,VWS V13.01,2013-01-25 06:35:00,
2013-01-25 01:40:00,23.0,-12.1,29.59,SSE,164,3.6,4.9,20,0.00,,,0.00,VWS V13.01,2013-01-25 06:40:00,
2013-01-25 01:45:00,23.0,-12.1,29.59,South,173,4.0,8.7,20,0.00,,,0.00,VWS V13.01,2013-01-25 06:45:00,
2013-01-25 01:50:00,23.0,-12.1,29.59,ESE,117,3.6,8.1,20,0.00,,,0.00,VWS V13.01,2013-01-25 06:50:00,
2013-01-25 01:55:00,23.0,-12.1,29.59,East,96,3.6,10.5,20,0.00,,,0.00,VWS V13.01,2013-01-25 06:55:00,
2013-01-25 02:00:00,23.0,-12.1,29.59,SE,143,13.2,13.2,20,0.00,,,0.00,VWS V13.01,2013-01-25 07:00:00,
2013-01-25 02:05:00,23.0,-12.1,29.59,SE,130,8.7,13.2,20,0.00,,,0.00,VWS V13.01,2013-01-25 07:05:00,
2013-01-25 02:10:00,23.0,-12.1,29.59,ESE,122,11.0,11.0,20,0.00,,,0.00,VWS V13.01,2013-01-25 07:10:00,
2013-01-25 02:15:00,23.0,-12.1,29.59,SE,129,7.6,11.9,20,0.00,,,0.00,VWS V13.01,2013-01-25 07:15:00,
2013-01-25 02:20:00,23.0,-12.1,29.56,ESE,105,9.2,11.0,20,0.00,,,0.00,VWS V13.01,2013-01-25 07:20:00,
2013-01-25 02:25:00,23.0,-12.1,29.56,ESE,123,8.1,12.8,20,0.00,,,0.00,VWS V13.01,2013-01-25 07:25:00,
2013-01-25 02:30:00,23.0,-12.1,29.56,ESE,109,8.1,15.0,20,0.00,,,0.00,VWS V13.01,2013-01-25 07:30:00,
2013-01-25 02:35:00,23.0,-12.1,29.56,ESE,108,10.1,11.0,20,0.00,,,0.00,VWS V13.01,2013-01-25 07:35:00,
2013-01-25 02:40:00,23.0,-12.1,29.56,East,88,8.7,10.1,20,0.00,,,0.00,VWS V13.01,2013-01-25 07:40:00,
2013-01-25 02:45:00,23.2,-12.9,29.56,SE,130,5.4,10.5,19,0.00,,,0.00,VWS V13.01,2013-01-25 07:45:00,
2013-01-25 02:50:00,23.2,-12.9,29.59,ESE,110,6.3,10.1,19,0.00,,,0.00,VWS V13.01,2013-01-25 07:50:00,
2013-01-25 02:55:00,23.2,-12.9,29.59,SE,136,8.3,14.1,19,0.00,,,0.00,VWS V13.01,2013-01-25 07:55:00,
2013-01-25 03:00:00,23.2,-12.9,29.59,SE,124,5.4,10.5,19,0.00,,,0.00,VWS V13.01,2013-01-25 08:00:00,
2013-01-25 03:05:00,23.2,-12.9,29.59,East,94,10.5,10.5,19,0.00,,,0.00,VWS V13.01,2013-01-25 08:05:00,
2013-01-25 03:10:00,23.2,-12.9,29.59,East,100,5.4,10.1,19,0.00,,,0.00,VWS V13.01,2013-01-25 08:10:00,
2013-01-25 03:15:00,23.2,-12.9,29.59,ESE,106,5.4,8.1,19,0.00,,,0.00,VWS V13.01,2013-01-25 08:15:00,
2013-01-25 03:20:00,23.2,-12.9,29.59,East,91,5.8,8.7,19,0.00,,,0.00,VWS V13.01,2013-01-25 08:20:00,
2013-01-25 03:25:00,23.2,-12.9,29.59,ENE,63,5.8,11.0,19,0.00,,,0.00,VWS V13.01,2013-01-25 08:25:00,
2013-01-25 03:30:00,23.2,-12.9,29.59,ESE,123,8.7,10.5,19,0.00,,,0.00,VWS V13.01,2013-01-25 08:30:00,
2013-01-25 03:35:00,23.0,-12.1,29.56,ESE,115,8.7,8.7,20,0.00,,,0.00,VWS V13.01,2013-01-25 08:35:00,
2013-01-25 03:40:00,23.2,-12.9,29.56,SE,142,6.3,12.3,19,0.00,,,0.00,VWS V13.01,2013-01-25 08:40:00,
2013-01-25 03:45:00,23.2,-12.9,29.56,ESE,103,8.3,8.3,19,0.00,,,0.00,VWS V13.01,2013-01-25 08:45:00,
2013-01-25 03:50:00,23.2,-12.9,29.56,ESE,114,5.8,15.9,19,0.00,,,0.00,VWS V13.01,2013-01-25 08:50:00,
2013-01-25 03:55:00,23.2,-12.9,29.56,ESE,110,8.1,8.7,19,0.00,,,0.00,VWS V13.01,2013-01-25 08:55:00,
2013-01-25 04:00:00,23.2,-12.9,29.56,SE,137,8.7,10.5,19,0.00,,,0.00,VWS V13.01,2013-01-25 09:00:00,
2013-01-25 04:05:00,23.2,-12.9,29.53,SE,128,10.5,11.9,19,0.00,,,0.00,VWS V13.01,2013-01-25 09:05:00,
2013-01-25 04:10:00,23.2,-12.9,29.53,ESE,115,8.1,13.2,19,0.00,,,0.00,VWS V13.01,2013-01-25 09:10:00,
2013-01-25 04:15:00,23.2,-12.9,29.53,East,98,8.3,11.0,19,0.00,,,0.00,VWS V13.01,2013-01-25 09:15:00,
2013-01-25 04:20:00,23.2,-12.9,29.53,SE,124,10.5,12.8,19,0.00,,,0.00,VWS V13.01,2013-01-25 09:20:00,
2013-01-25 04:25:00,23.2,-12.9,29.53,East,96,8.3,13.2,19,0.00,,,0.00,VWS V13.01,2013-01-25 09:25:00,
2013-01-25 04:30:00,23.2,-12.9,29.53,SE,138,8.1,12.8,19,0.00,,,0.00,VWS V13.01,2013-01-25 09:30:00,
2013-01-25 04:35:00,23.2,-12.9,29.50,ESE,114,8.7,13.6,19,0.00,,,0.00,VWS V13.01,2013-01-25 09:35:00,
2013-01-25 04:40:00,23.2,-12.9,29.50,ESE,117,12.8,14.5,19,0.00,,,0.00,VWS V13.01,2013-01-25 09:40:00,
2013-01-25 04:45:00,23.2,-12.9,29.50,SE,141,4.0,10.1,19,0.00,,,0.00,VWS V13.01,2013-01-25 09:45:00,
2013-01-25 04:50:00,23.4,-12.8,29.50,SE,134,8.7,8.7,19,0.00,,,0.00,VWS V13.01,2013-01-25 09:50:00,
2013-01-25 04:55:00,23.4,-12.8,29.50,East,95,4.0,11.0,19,0.00,,,0.00,VWS V13.01,2013-01-25 09:55:00,
2013-01-25 05:00:00,23.4,-12.8,29.50,SE,132,6.3,8.7,19,0.00,,,0.00,VWS V13.01,2013-01-25 10:00:00,
2013-01-25 05:05:00,23.5,-12.6,29.50,ESE,116,8.1,9.6,19,0.00,,,0.00,VWS V13.01,2013-01-25 10:05:00,
2013-01-25 05:10:00,23.5,-12.6,29.50,ESE,118,5.4,11.0,19,0.00,,,0.00,VWS V13.01,2013-01-25 10:10:00,
2013-01-25 05:15:00,23.5,-12.6,29.50,NE,52,5.4,10.5,19,0.00,,,0.00,VWS V13.01,2013-01-25 10:15:00,
2013-01-25 05:20:00,23.5,-12.6,29.47,ESE,117,12.3,12.3,19,0.00,,,0.00,VWS V13.01,2013-01-25 10:20:00,
2013-01-25 05:25:00,23.5,-12.6,29.47,ESE,118,13.2,13.2,19,0.00,,,0.00,VWS V13.01,2013-01-25 10:25:00,
2013-01-25 05:30:00,23.5,-12.6,29.47,SE,135,11.0,11.0,19,0.00,,,0.00,VWS V13.01,2013-01-25 10:30:00,
2013-01-25 05:35:00,23.5,-12.6,29.47,ESE,116,8.7,11.0,19,0.00,,,0.00,VWS V13.01,2013-01-25 10:35:00,
2013-01-25 05:40:00,23.5,-12.6,29.47,East,98,8.1,10.1,19,0.00,,,0.00,VWS V13.01,2013-01-25 10:40:00,
2013-01-25 05:45:00,23.5,-12.6,29.47,SE,137,9.6,10.5,19,0.00,,,0.00,VWS V13.01,2013-01-25 10:45:00,
2013-01-25 05:50:00,23.5,-12.6,29.47,East,101,5.8,10.5,19,0.00,,,0.00,VWS V13.01,2013-01-25 10:50:00,
2013-01-25 05:55:00,23.5,-12.6,29.47,NE,51,3.1,11.9,19,0.00,,,0.00,VWS V13.01,2013-01-25 10:55:00,
2013-01-25 06:00:00,23.7,-12.5,29.47,SE,137,5.4,6.3,19,0.00,,,0.00,VWS V13.01,2013-01-25 11:00:00,
2013-01-25 06:05:00,23.7,-12.5,29.47,East,93,3.1,8.3,19,0.00,,,0.00,VWS V13.01,2013-01-25 11:05:00,
2013-01-25 06:10:00,23.9,-12.4,29.47,SE,139,6.3,8.3,19,0.00,,,0.00,VWS V13.01,2013-01-25 11:10:00,
2013-01-25 06:15:00,23.9,-12.4,29.47,ESE,108,4.0,5.4,19,0.00,,,0.00,VWS V13.01,2013-01-25 11:15:00,
2013-01-25 06:20:00,23.9,-12.4,29.47,ESE,108,4.9,6.3,19,0.00,,,0.00,VWS V13.01,2013-01-25 11:20:00,
2013-01-25 06:25:00,23.9,-12.4,29.47,ENE,63,2.2,6.3,19,0.00,,,0.00,VWS V13.01,2013-01-25 11:25:00,
2013-01-25 06:30:00,24.1,-12.2,29.47,East,80,0.0,4.0,19,0.00,,,0.00,VWS V13.01,2013-01-25 11:30:00,
2013-01-25 06:35:00,24.1,-12.2,29.47,ESE,113,3.6,6.3,19,0.00,,,0.00,VWS V13.01,2013-01-25 11:35:00,
2013-01-25 06:40:00,24.1,-12.2,29.47,ESE,123,6.3,8.3,19,0.00,,,0.00,VWS V13.01,2013-01-25 11:40:00,
2013-01-25 06:45:00,23.9,-12.4,29.47,SE,146,3.1,8.1,19,0.00,,,0.00,VWS V13.01,2013-01-25 11:45:00,
2013-01-25 06:50:00,23.9,-12.4,29.47,SSE,150,6.3,8.7,19,0.00,,,0.00,VWS V13.01,2013-01-25 11:50:00,
2013-01-25 06:55:00,23.7,-12.5,29.47,ESE,110,5.4,9.6,19,0.00,,,0.00,VWS V13.01,2013-01-25 11:55:00,
2013-01-25 07:00:00,23.5,-12.6,29.47,ESE,109,4.0,8.3,19,0.00,,,0.00,VWS V13.01,2013-01-25 12:00:00,
2013-01-25 07:05:00,23.4,-12.8,29.47,SE,127,5.8,7.6,19,0.00,,,0.00,VWS V13.01,2013-01-25 12:05:00,
2013-01-25 07:10:00,23.2,-12.9,29.47,East,100,4.9,8.7,19,0.00,,,0.00,VWS V13.01,2013-01-25 12:10:00,
2013-01-25 07:15:00,23.2,-12.9,29.47,ESE,117,5.4,6.3,19,0.00,,,0.00,VWS V13.01,2013-01-25 12:15:00,
2013-01-25 07:20:00,23.2,-12.9,29.44,SE,140,6.3,8.3,19,0.00,,,0.00,VWS V13.01,2013-01-25 12:20:00,
2013-01-25 07:25:00,23.2,-12.9,29.44,ESE,117,6.3,11.0,19,0.00,,,0.00,VWS V13.01,2013-01-25 12:25:00,
2013-01-25 07:30:00,23.2,-12.9,29.44,SE,130,6.3,11.4,19,0.00,,,0.00,VWS V13.01,2013-01-25 12:30:00,
2013-01-25 07:35:00,23.2,-12.9,29.44,SE,145,5.8,8.3,19,0.00,,,0.00,VWS V13.01,2013-01-25 12:35:00,
2013-01-25 07:40:00,23.2,-12.9,29.44,SE,130,5.4,10.5,19,0.00,,,0.00,VWS V13.01,2013-01-25 12:40:00,
2013-01-25 07:45:00,23.2,-12.9,29.44,SE,124,8.7,11.9,19,0.00,,,0.00,VWS V13.01,2013-01-25 12:45:00,
2013-01-25 07:50:00,23.4,-12.8,29.41,ESE,103,5.4,10.1,19,0.00,,,0.00,VWS V13.01,2013-01-25 12:50:00,
2013-01-25 07:55:00,23.4,-12.8,29.41,SE,128,7.2,8.1,19,0.00,,,0.00,VWS V13.01,2013-01-25 12:55:00,
2013-01-25 08:00:00,23.2,-12.9,29.41,East,101,8.3,10.5,19,0.00,,,0.00,VWS V13.01,2013-01-25 13:00:00,
2013-01-25 08:05:00,23.2,-12.9,29.41,East,87,4.0,11.9,19,0.00,,,0.00,VWS V13.01,2013-01-25 13:05:00,
2013-01-25 08:10:00,23.4,-12.8,29.41,SE,143,2.2,8.3,19,0.00,,,0.00,VWS V13.01,2013-01-25 13:10:00,
2013-01-25 08:15:00,23.4,-12.8,29.41,ESE,106,6.3,8.3,19,0.00,,,0.00,VWS V13.01,2013-01-25 13:15:00,
2013-01-25 08:20:00,23.2,-12.9,29.41,East,93,5.8,11.0,19,0.00,,,0.00,VWS V13.01,2013-01-25 13:20:00,
2013-01-25 08:25:00,23.0,-12.1,29.41,East,98,2.2,5.8,20,0.00,,,0.00,VWS V13.01,2013-01-25 13:25:00,
2013-01-25 08:30:00,22.8,-10.3,29.41,SE,126,3.1,6.3,22,0.00,,,0.00,VWS V13.01,2013-01-25 13:30:00,
2013-01-25 08:35:00,22.8,-7.7,29.41,ESE,116,5.8,8.7,25,0.00,,,0.00,VWS V13.01,2013-01-25 13:35:00,
2013-01-25 08:40:00,22.6,-4.1,29.41,East,92,5.8,7.6,30,0.00,,,0.00,VWS V13.01,2013-01-25 13:40:00,
2013-01-25 08:45:00,22.6,-2.1,29.41,ESE,123,4.9,5.4,33,0.00,,,0.00,VWS V13.01,2013-01-25 13:45:00,
2013-01-25 08:50:00,22.6,-1.5,29.41,ESE,123,6.3,9.2,34,0.00,,,0.00,VWS V13.01,2013-01-25 13:50:00,
2013-01-25 08:55:00,22.5,-1.0,29.41,SE,124,3.6,8.1,35,0.00,,,0.00,VWS V13.01,2013-01-25 13:55:00,
2013-01-25 09:00:00,22.5,-0.4,29.41,SE,146,8.1,8.7,36,0.00,,,0.00,VWS V13.01,2013-01-25 14:00:00,
2013-01-25 09:05:00,22.3,-0.6,29.41,ESE,102,7.6,9.6,36,0.00,,,0.00,VWS V13.01,2013-01-25 14:05:00,
2013-01-25 09:10:00,22.3,0.0,29.41,East,85,5.8,8.1,37,0.00,,,0.00,VWS V13.01,2013-01-25 14:10:00,
2013-01-25 09:15:00,22.3,0.5,29.41,ESE,114,8.7,11.4,38,0.00,,,0.00,VWS V13.01,2013-01-25 14:15:00,
2013-01-25 09:20:00,22.3,1.1,29.38,ESE,109,8.1,11.0,39,0.00,,,0.00,VWS V13.01,2013-01-25 14:20:00,
2013-01-25 09:25:00,22.3,2.7,29.38,ESE,113,5.4,8.3,42,0.00,,,0.00,VWS V13.01,2013-01-25 14:25:00,
2013-01-25 09:30:00,22.3,2.7,29.38,SE,136,8.3,10.1,42,0.00,,,0.00,VWS V13.01,2013-01-25 14:30:00,
2013-01-25 09:35:00,22.3,3.2,29.38,ESE,109,4.9,12.3,43,0.00,,,0.00,VWS V13.01,2013-01-25 14:35:00,
2013-01-25 09:40:00,22.3,3.2,29.38,ESE,122,5.4,9.6,43,0.00,,,0.00,VWS V13.01,2013-01-25 14:40:00,
2013-01-25 09:45:00,22.5,3.4,29.38,SE,124,6.3,8.1,43,0.00,,,0.00,VWS V13.01,2013-01-25 14:45:00,
2013-01-25 09:50:00,22.6,4.0,29.38,East,97,5.4,8.1,44,0.00,,,0.00,VWS V13.01,2013-01-25 14:50:00,
2013-01-25 09:55:00,22.6,4.0,29.38,East,86,5.8,8.1,44,0.00,,,0.00,VWS V13.01,2013-01-25 14:55:00,
2013-01-25 10:00:00,22.8,4.7,29.38,East,95,7.6,8.1,45,0.00,,,0.00,VWS V13.01,2013-01-25 15:00:00,
2013-01-25 10:05:00,22.8,5.2,29.38,ESE,113,4.9,9.6,46,0.00,,,0.00,VWS V13.01,2013-01-25 15:05:00,
2013-01-25 10:10:00,23.0,5.8,29.38,East,89,5.8,6.7,47,0.00,,,0.00,VWS V13.01,2013-01-25 15:10:00,
2013-01-25 10:15:00,23.0,5.8,29.38,ENE,74,2.2,7.6,47,0.00,,,0.00,VWS V13.01,2013-01-25 15:15:00,
2013-01-25 10:20:00,23.2,5.9,29.38,ESE,117,3.1,6.3,47,0.00,,,0.00,VWS V13.01,2013-01-25 15:20:00,
2013-01-25 10:25:00,23.2,5.9,29.38,NE,50,2.2,5.4,47,0.00,,,0.00,VWS V13.01,2013-01-25 15:25:00,
2013-01-25 10:30:00,23.4,6.1,29.38,ENE,62,2.2,4.9,47,0.00,,,0.00,VWS V13.01,2013-01-25 15:30:00,
2013-01-25 10:35:00,23.4,6.1,29.38,ESE,114,2.7,5.4,47,0.00,,,0.00,VWS V13.01,2013-01-25 15:35:00,
2013-01-25 10:40:00,23.4,6.6,29.38,East,101,4.0,6.3,48,0.00,,,0.00,VWS V13.01,2013-01-25 15:40:00,
2013-01-25 10:45:00,23.5,6.8,29.38,SE,127,0.0,4.9,48,0.00,,,0.00,VWS V13.01,2013-01-25 15:45:00,
2013-01-25 10:50:00,23.5,6.8,29.38,NE,36,0.0,3.1,48,0.00,,,0.00,VWS V13.01,2013-01-25 15:50:00,
2013-01-25 10:55:00,23.9,7.5,29.38,ESE,113,3.1,4.0,49,0.00,,,0.00,VWS V13.01,2013-01-25 15:55:00,
2013-01-25 11:00:00,23.9,8.0,29.38,ESE,105,0.0,4.5,50,0.00,,,0.00,VWS V13.01,2013-01-25 16:00:00,
2013-01-25 11:05:00,24.1,8.1,29.38,ESE,104,2.2,3.1,50,0.00,,,0.00,VWS V13.01,2013-01-25 16:05:00,
2013-01-25 11:10:00,24.3,8.3,29.38,SSE,161,2.7,4.0,50,0.00,,,0.00,VWS V13.01,2013-01-25 16:10:00,
2013-01-25 11:15:00,24.4,8.5,29.38,SE,145,2.7,2.7,50,0.00,,,0.00,VWS V13.01,2013-01-25 16:15:00,
2013-01-25 11:20:00,24.4,8.5,29.38,SE,145,0.0,0.0,50,0.00,,,0.00,VWS V13.01,2013-01-25 16:20:00,
2013-01-25 11:25:00,24.4,9.4,29.38,SE,129,5.8,8.3,52,0.00,,,0.00,VWS V13.01,2013-01-25 16:25:00,
2013-01-25 11:30:00,24.6,9.9,29.38,ESE,117,6.3,6.3,53,0.00,,,0.00,VWS V13.01,2013-01-25 16:30:00,
2013-01-25 11:35:00,24.6,10.4,29.35,East,101,6.7,7.6,54,0.00,,,0.00,VWS V13.01,2013-01-25 16:35:00,
2013-01-25 11:40:00,24.6,11.2,29.35,East,90,5.8,7.6,56,0.00,,,0.00,VWS V13.01,2013-01-25 16:40:00,
2013-01-25 11:45:00,24.8,11.7,29.35,East,89,5.8,6.3,57,0.00,,,0.00,VWS V13.01,2013-01-25 16:45:00,
2013-01-25 11:50:00,25.3,12.2,29.35,ESE,102,5.8,8.1,57,0.00,,,0.00,VWS V13.01,2013-01-25 16:50:00,
2013-01-25 11:55:00,25.9,13.5,29.35,ENE,65,4.0,8.1,59,0.00,,,0.00,VWS V13.01,2013-01-25 16:55:00,
2013-01-25 12:00:00,26.2,14.3,29.35,East,95,6.3,8.7,60,0.00,,,0.00,VWS V13.01,2013-01-25 17:00:00,
2013-01-25 12:05:00,26.6,15.0,29.35,ENE,77,5.4,8.1,61,0.00,,,0.00,VWS V13.01,2013-01-25 17:05:00,
2013-01-25 12:10:00,27.0,15.3,29.35,ESE,105,5.8,8.7,61,0.00,,,0.00,VWS V13.01,2013-01-25 17:10:00,
2013-01-25 12:15:00,27.5,15.8,29.35,ENE,70,6.3,7.6,61,0.00,,,0.00,VWS V13.01,2013-01-25 17:15:00,
2013-01-25 12:20:00,28.0,16.0,29.35,East,83,6.3,7.6,60,0.00,,,0.00,VWS V13.01,2013-01-25 17:20:00,
2013-01-25 12:25:00,28.4,15.9,29.35,ENE,78,6.7,6.7,59,0.00,,,0.00,VWS V13.01,2013-01-25 17:25:00,
2013-01-25 12:30:00,28.4,15.5,29.35,SE,127,5.8,8.1,58,0.00,,,0.00,VWS V13.01,2013-01-25 17:30:00,
2013-01-25 12:35:00,28.6,15.3,29.32,SE,132,3.1,3.1,57,0.00,,,0.00,VWS V13.01,2013-01-25 17:35:00,
2013-01-25 12:40:00,28.6,15.3,29.32,ENE,74,3.6,4.0,57,0.00,,,0.00,VWS V13.01,2013-01-25 17:40:00,
2013-01-25 12:45:00,28.6,14.9,29.32,East,80,5.4,6.3,56,0.00,,,0.00,VWS V13.01,2013-01-25 17:45:00,
2013-01-25 12:50:00,28.9,15.6,29.32,East,95,4.0,5.4,57,0.00,,,0.00,VWS V13.01,2013-01-25 17:50:00,
2013-01-25 12:55:00,29.5,16.5,29.32,East,98,3.1,3.6,58,0.00,,,0.00,VWS V13.01,2013-01-25 17:55:00,
2013-01-25 13:00:00,30.0,17.0,29.32,ESE,104,5.8,5.8,58,0.00,,,0.00,VWS V13.01,2013-01-25 18:00:00,
2013-01-25 13:05:00,30.2,16.8,29.32,SE,135,2.2,3.1,57,0.00,,,0.00,VWS V13.01,2013-01-25 18:05:00,
2013-01-25 13:10:00,30.2,16.8,29.32,ESE,120,2.7,2.7,57,0.00,,,0.00,VWS V13.01,2013-01-25 18:10:00,
2013-01-25 13:15:00,30.4,16.6,29.32,East,91,3.1,3.1,56,0.00,,,0.00,VWS V13.01,2013-01-25 18:15:00,
2013-01-25 13:20:00,30.6,16.7,29.29,East,91,0.0,2.7,56,0.00,,,0.00,VWS V13.01,2013-01-25 18:20:00,
2013-01-25 13:25:00,30.9,17.1,29.29,East,91,0.0,2.2,56,0.00,,,0.00,VWS V13.01,2013-01-25 18:25:00,
2013-01-25 13:30:00,31.1,17.2,29.29,East,91,0.0,0.0,56,0.00,,,0.00,VWS V13.01,2013-01-25 18:30:00,
2013-01-25 13:35:00,31.1,17.2,29.29,East,91,0.0,2.2,56,0.00,,,0.00,VWS V13.01,2013-01-25 18:35:00,
2013-01-25 13:40:00,30.6,16.3,29.29,East,92,2.2,2.2,55,0.00,,,0.00,VWS V13.01,2013-01-25 18:40:00,
2013-01-25 13:45:00,30.0,15.8,29.29,East,91,3.1,3.1,55,0.00,,,0.00,VWS V13.01,2013-01-25 18:45:00,
2013-01-25 13:50:00,29.5,14.9,29.32,West,260,2.7,2.7,54,0.00,,,0.00,VWS V13.01,2013-01-25 18:50:00,
2013-01-25 13:55:00,29.1,14.6,29.32,West,260,0.0,0.0,54,0.00,,,0.00,VWS V13.01,2013-01-25 18:55:00,
2013-01-25 14:00:00,29.1,14.6,29.32,West,260,0.0,2.7,54,0.00,,,0.00,VWS V13.01,2013-01-25 19:00:00,
2013-01-25 14:05:00,28.9,14.4,29.32,SW,233,2.7,3.6,54,0.00,,,0.00,VWS V13.01,2013-01-25 19:05:00,
2013-01-25 14:10:00,29.5,15.3,29.32,NNW,327,2.7,4.0,55,0.00,,,0.00,VWS V13.01,2013-01-25 19:10:00,
2013-01-25 14:16:00,29.8,15.7,29.32,WNW,291,0.0,0.0,55,0.00,,,0.00,VWS V13.01,2013-01-25 19:16:00,
2013-01-25 14:21:00,30.6,16.3,29.32,NW,322,5.4,5.4,55,0.00,,,0.00,VWS V13.01,2013-01-25 19:21:00,
2013-01-25 14:26:00,31.3,17.8,29.32,NNW,343,5.4,5.4,57,0.00,,,0.00,VWS V13.01,2013-01-25 19:26:00,
2013-01-25 14:31:00,32.0,19.3,29.32,NW,310,3.6,4.9,59,0.00,,,0.00,VWS V13.01,2013-01-25 19:31:00,
2013-01-25 14:36:00,32.2,19.9,29.32,North,353,4.9,5.8,60,0.00,,,0.00,VWS V13.01,2013-01-25 19:36:00,
2013-01-25 14:41:00,32.2,19.9,29.32,NW,323,0.0,5.4,60,0.00,,,0.00,VWS V13.01,2013-01-25 19:41:00,
2013-01-25 14:46:00,32.2,19.9,29.32,WNW,303,5.4,6.3,60,0.00,,,0.00,VWS V13.01,2013-01-25 19:46:00,
2013-01-25 14:51:00,32.0,19.7,29.29,NW,323,5.4,5.4,60,0.00,,,0.00,VWS V13.01,2013-01-25 19:51:00,
2013-01-25 14:56:00,32.2,20.3,29.29,NNW,338,5.8,5.8,61,0.00,,,0.00,VWS V13.01,2013-01-25 19:56:00,
2013-01-25 15:01:00,32.2,20.3,29.29,NNW,333,6.3,6.3,61,0.00,,,0.00,VWS V13.01,2013-01-25 20:01:00,
2013-01-25 15:06:00,32.2,20.3,29.29,NNW,336,5.8,5.8,61,0.00,,,0.00,VWS V13.01,2013-01-25 20:06:00,
2013-01-25 15:11:00,32.2,20.6,29.29,WNW,302,6.3,6.3,62,0.00,,,0.00,VWS V13.01,2013-01-25 20:11:00,
2013-01-25 15:16:00,32.2,20.6,29.29,NNW,329,5.4,5.8,62,0.00,,,0.00,VWS V13.01,2013-01-25 20:16:00,
2013-01-25 15:21:00,32.2,20.6,29.29,NNW,344,4.9,6.3,62,0.00,,,0.00,VWS V13.01,2013-01-25 20:21:00,
2013-01-25 15:26:00,32.2,20.6,29.29,NNW,329,5.4,7.6,62,0.00,,,0.00,VWS V13.01,2013-01-25 20:26:00,
2013-01-25 15:31:00,32.2,20.6,29.29,NW,314,5.4,6.3,62,0.00,,,0.00,VWS V13.01,2013-01-25 20:31:00,
2013-01-25 15:36:00,32.2,20.6,29.29,NNW,343,4.9,5.4,62,0.00,,,0.00,VWS V13.01,2013-01-25 20:36:00,
2013-01-25 15:41:00,32.0,20.1,29.29,NNW,329,5.4,5.4,61,0.00,,,0.00,VWS V13.01,2013-01-25 20:41:00,
2013-01-25 15:46:00,31.8,19.9,29.29,WNW,301,7.6,7.6,61,0.00,,,0.00,VWS V13.01,2013-01-25 20:46:00,
2013-01-25 15:51:00,31.8,19.9,29.32,NNW,330,3.1,5.8,61,0.00,,,0.00,VWS V13.01,2013-01-25 20:51:00,
2013-01-25 15:56:00,31.6,19.8,29.32,NW,311,3.6,5.4,61,0.00,,,0.00,VWS V13.01,2013-01-25 20:56:00,
2013-01-25 16:01:00,31.6,19.8,29.32,NW,318,3.6,5.8,61,0.00,,,0.00,VWS V13.01,2013-01-25 21:01:00,
2013-01-25 16:06:00,31.6,19.4,29.32,NW,314,6.3,8.3,60,0.00,,,0.00,VWS V13.01,2013-01-25 21:06:00,
2013-01-25 16:11:00,31.8,19.9,29.32,NNW,343,4.9,6.3,61,0.00,,,0.00,VWS V13.01,2013-01-25 21:11:00,
2013-01-25 16:16:00,31.8,19.5,29.32,NNW,327,6.3,7.6,60,0.00,,,0.00,VWS V13.01,2013-01-25 21:16:00,
2013-01-25 16:21:00,31.6,19.8,29.32,WNW,294,8.3,8.3,61,0.00,,,0.00,VWS V13.01,2013-01-25 21:21:00,
2013-01-25 16:26:00,31.8,19.9,29.32,NW,315,4.0,8.3,61,0.00,,,0.00,VWS V13.01,2013-01-25 21:26:00,
2013-01-25 16:31:00,31.8,19.5,29.32,NW,321,5.8,8.7,60,0.00,,,0.00,VWS V13.01,2013-01-25 21:31:00,
2013-01-25 16:36:00,31.6,19.4,29.32,NW,308,5.8,5.8,60,0.00,,,0.00,VWS V13.01,2013-01-25 21:36:00,
2013-01-25 16:41:00,31.6,19.4,29.32,NW,310,6.3,6.3,60,0.00,,,0.00,VWS V13.01,2013-01-25 21:41:00,
2013-01-25 16:46:00,31.5,18.8,29.32,NW,319,8.3,8.3,59,0.00,,,0.00,VWS V13.01,2013-01-25 21:46:00,
2013-01-25 16:51:00,31.3,18.6,29.35,NNW,330,8.1,10.5,59,0.00,,,0.00,VWS V13.01,2013-01-25 21:51:00,
2013-01-25 16:56:00,31.3,18.2,29.35,WNW,288,5.4,9.2,58,0.00,,,0.00,VWS V13.01,2013-01-25 21:56:00,
2013-01-25 17:01:00,31.3,18.2,29.35,WNW,299,7.6,7.6,58,0.00,,,0.00,VWS V13.01,2013-01-25 22:01:00,
2013-01-25 17:06:00,31.1,18.1,29.35,NW,321,5.8,6.3,58,0.00,,,0.00,VWS V13.01,2013-01-25 22:06:00,
2013-01-25 17:11:00,31.1,18.1,29.35,WNW,300,4.9,5.8,58,0.00,,,0.00,VWS V13.01,2013-01-25 22:11:00,
2013-01-25 17:16:00,30.9,17.5,29.35,NNW,329,3.1,5.4,57,0.00,,,0.00,VWS V13.01,2013-01-25 22:16:00,
2013-01-25 17:21:00,30.7,17.3,29.35,NNW,327,4.9,6.3,57,0.00,,,0.00,VWS V13.01,2013-01-25 22:21:00,
2013-01-25 17:26:00,30.7,17.3,29.35,North,353,2.7,5.4,57,0.00,,,0.00,VWS V13.01,2013-01-25 22:26:00,
2013-01-25 17:31:00,30.6,17.1,29.35,NW,315,5.8,5.8,57,0.00,,,0.00,VWS V13.01,2013-01-25 22:31:00,
2013-01-25 17:36:00,30.4,17.0,29.35,NW,315,3.6,4.9,57,0.00,,,0.00,VWS V13.01,2013-01-25 22:36:00,
2013-01-25 17:41:00,30.4,17.0,29.35,NNW,332,4.0,5.4,57,0.00,,,0.00,VWS V13.01,2013-01-25 22:41:00,
2013-01-25 17:46:00,30.4,17.0,29.35,WNW,296,5.8,8.1,57,0.00,,,0.00,VWS V13.01,2013-01-25 22:46:00,
2013-01-25 17:51:00,30.2,16.8,29.35,WNW,302,4.0,5.8,57,0.00,,,0.00,VWS V13.01,2013-01-25 22:51:00,
2013-01-25 17:56:00,30.2,16.8,29.35,WNW,297,6.3,6.3,57,0.00,,,0.00,VWS V13.01,2013-01-25 22:56:00,
2013-01-25 18:01:00,30.2,16.4,29.35,NW,326,5.4,7.2,56,0.00,,,0.00,VWS V13.01,2013-01-25 23:01:00,
2013-01-25 18:06:00,30.2,16.4,29.35,NW,313,4.0,6.3,56,0.00,,,0.00,VWS V13.01,2013-01-25 23:06:00,
2013-01-25 18:11:00,30.2,16.4,29.35,NNW,339,5.4,5.8,56,0.00,,,0.00,VWS V13.01,2013-01-25 23:11:00,
2013-01-25 18:16:00,30.2,16.4,29.35,WNW,303,3.1,4.9,56,0.00,,,0.00,VWS V13.01,2013-01-25 23:16:00,
2013-01-25 18:21:00,30.2,16.4,29.35,NW,310,5.4,5.4,56,0.00,,,0.00,VWS V13.01,2013-01-25 23:21:00,
2013-01-25 18:26:00,30.0,16.2,29.35,NNW,332,3.6,6.3,56,0.00,,,0.00,VWS V13.01,2013-01-25 23:26:00,
2013-01-25 18:31:00,30.0,16.2,29.35,NW,317,3.1,4.0,56,0.00,,,0.00,VWS V13.01,2013-01-25 23:31:00,
2013-01-25 18:36:00,30.0,16.2,29.35,WNW,302,2.7,3.6,56,0.00,,,0.00,VWS V13.01,2013-01-25 23:36:00,
2013-01-25 18:41:00,30.0,16.2,29.35,NNW,333,2.7,3.6,56,0.00,,,0.00,VWS V13.01,2013-01-25 23:41:00,
2013-01-25 18:46:00,30.0,16.2,29.35,NW,304,3.1,4.9,56,0.00,,,0.00,VWS V13.01,2013-01-25 23:46:00,
2013-01-25 18:51:00,29.8,16.1,29.38,NNW,338,3.6,3.6,56,0.00,,,0.00,VWS V13.01,2013-01-25 23:51:00,
2013-01-25 18:56:00,30.0,16.2,29.38,NNW,327,3.6,4.0,56,0.00,,,0.00,VWS V13.01,2013-01-25 23:56:00,
2013-01-25 19:01:00,30.0,16.6,29.38,WNW,299,4.0,5.4,57,0.00,,,0.00,VWS V13.01,2013-01-26 00:01:00,
2013-01-25 19:06:00,30.0,16.6,29.38,NW,305,3.6,3.6,57,0.00,,,0.00,VWS V13.01,2013-01-26 00:06:00,
2013-01-25 19:11:00,30.0,16.6,29.38,NNW,331,3.6,4.9,57,0.00,,,0.00,VWS V13.01,2013-01-26 00:11:00,
2013-01-25 19:16:00,30.0,16.6,29.38,NW,312,7.6,7.6,57,0.00,,,0.00,VWS V13.01,2013-01-26 00:16:00,
2013-01-25 19:21:00,30.2,16.8,29.38,NW,322,4.0,7.6,57,0.00,,,0.00,VWS V13.01,2013-01-26 00:21:00,
2013-01-25 19:26:00,30.2,16.4,29.38,WNW,300,4.0,4.9,56,0.00,,,0.00,VWS V13.01,2013-01-26 00:26:00,
2013-01-25 19:31:00,30.2,16.4,29.38,NNW,331,5.8,6.3,56,0.00,,,0.00,VWS V13.01,2013-01-26 00:31:00,
2013-01-25 19:36:00,30.2,16.0,29.38,NW,318,2.7,4.0,55,0.00,,,0.00,VWS V13.01,2013-01-26 00:36:00,
2013-01-25 19:41:00,30.2,16.0,29.38,NW,308,2.7,6.3,55,0.00,,,0.00,VWS V13.01,2013-01-26 00:41:00,
2013-01-25 19:46:00,30.2,16.0,29.38,NW,308,2.7,4.0,55,0.00,,,0.00,VWS V13.01,2013-01-26 00:46:00,
2013-01-25 19:51:00,30.2,16.0,29.38,NW,317,4.0,4.0,55,0.00,,,0.00,VWS V13.01,2013-01-26 00:51:00,
2013-01-25 19:56:00,30.2,16.0,29.38,NNW,341,3.6,5.4,55,0.00,,,0.00,VWS V13.01,2013-01-26 00:56:00,
2013-01-25 20:01:00,30.2,16.0,29.38,WNW,297,5.4,5.4,55,0.00,,,0.00,VWS V13.01,2013-01-26 01:01:00,
2013-01-25 20:06:00,30.2,16.0,29.38,NW,317,4.0,6.3,55,0.00,,,0.00,VWS V13.01,2013-01-26 01:06:00,
2013-01-25 20:11:00,30.2,16.0,29.38,NW,316,3.6,4.9,55,0.00,,,0.00,VWS V13.01,2013-01-26 01:11:00,
2013-01-25 20:16:00,30.2,16.0,29.38,NW,325,4.0,5.8,55,0.00,,,0.00,VWS V13.01,2013-01-26 01:16:00,
2013-01-25 20:21:00,30.2,16.0,29.38,NW,320,5.4,5.4,55,0.00,,,0.00,VWS V13.01,2013-01-26 01:21:00,
2013-01-25 20:26:00,30.2,16.0,29.38,NW,318,3.6,5.4,55,0.00,,,0.00,VWS V13.01,2013-01-26 01:26:00,
2013-01-25 20:31:00,30.2,16.0,29.38,NW,318,4.9,5.8,55,0.00,,,0.00,VWS V13.01,2013-01-26 01:31:00,
2013-01-25 20:36:00,30.2,15.6,29.41,NW,308,4.0,4.0,54,0.00,,,0.00,VWS V13.01,2013-01-26 01:36:00,
2013-01-25 20:41:00,30.2,15.6,29.41,NW,314,6.7,6.7,54,0.00,,,0.00,VWS V13.01,2013-01-26 01:41:00,
2013-01-25 20:46:00,30.2,15.6,29.41,NW,315,4.5,8.1,54,0.00,,,0.00,VWS V13.01,2013-01-26 01:46:00,
2013-01-25 20:51:00,30.2,15.6,29.41,WNW,302,4.9,6.3,54,0.00,,,0.00,VWS V13.01,2013-01-26 01:51:00,
2013-01-25 20:56:00,30.2,15.6,29.41,NW,314,6.3,7.6,54,0.00,,,0.00,VWS V13.01,2013-01-26 01:56:00,
2013-01-25 21:01:00,30.2,15.6,29.41,WNW,299,4.0,5.8,54,0.00,,,0.00,VWS V13.01,2013-01-26 02:01:00,
2013-01-25 21:06:00,30.2,15.6,29.41,NNW,327,4.9,5.8,54,0.00,,,0.00,VWS V13.01,2013-01-26 02:06:00,
2013-01-25 21:11:00,30.2,15.6,29.41,NW,305,4.0,4.9,54,0.00,,,0.00,VWS V13.01,2013-01-26 02:11:00,
2013-01-25 21:16:00,30.2,15.6,29.41,NW,326,6.3,6.3,54,0.00,,,0.00,VWS V13.01,2013-01-26 02:16:00,
2013-01-25 21:21:00,30.2,15.6,29.41,NW,304,3.6,5.4,54,0.00,,,0.00,VWS V13.01,2013-01-26 02:21:00,
2013-01-25 21:26:00,30.2,15.6,29.41,NW,308,5.4,7.2,54,0.00,,,0.00,VWS V13.01,2013-01-26 02:26:00,
2013-01-25 21:31:00,30.2,15.6,29.41,NW,306,5.4,5.4,54,0.00,,,0.00,VWS V13.01,2013-01-26 02:31:00,
2013-01-25 21:36:00,30.2,15.6,29.41,NW,309,3.6,4.0,54,0.00,,,0.00,VWS V13.01,2013-01-26 02:36:00,
2013-01-25 21:41:00,30.2,15.6,29.41,WNW,293,6.3,6.3,54,0.00,,,0.00,VWS V13.01,2013-01-26 02:41:00,
2013-01-25 21:46:00,30.2,15.6,29.41,NW,306,5.4,5.8,54,0.00,,,0.00,VWS V13.01,2013-01-26 02:46:00,
2013-01-25 21:51:00,30.2,15.6,29.41,WNW,302,4.9,4.9,54,0.00,,,0.00,VWS V13.01,2013-01-26 02:51:00,
2013-01-25 21:56:00,30.2,15.6,29.41,WNW,287,5.8,5.8,54,0.00,,,0.00,VWS V13.01,2013-01-26 02:56:00,
2013-01-25 22:01:00,30.4,15.7,29.41,NW,305,3.6,5.4,54,0.00,,,0.00,VWS V13.01,2013-01-26 03:01:00,
2013-01-25 22:06:00,30.4,15.7,29.41,NW,306,4.0,6.3,54,0.00,,,0.00,VWS V13.01,2013-01-26 03:06:00,
2013-01-25 22:11:00,30.4,15.7,29.41,West,281,5.4,5.4,54,0.00,,,0.00,VWS V13.01,2013-01-26 03:11:00,
2013-01-25 22:16:00,30.4,15.7,29.41,NW,313,2.7,6.3,54,0.00,,,0.00,VWS V13.01,2013-01-26 03:16:00,
2013-01-25 22:21:00,30.4,15.7,29.41,NW,323,5.4,5.8,54,0.00,,,0.00,VWS V13.01,2013-01-26 03:21:00,
2013-01-25 22:26:00,30.6,15.9,29.41,NW,313,4.0,5.4,54,0.00,,,0.00,VWS V13.01,2013-01-26 03:26:00,
2013-01-25 22:31:00,30.6,15.9,29.41,NW,314,3.1,3.6,54,0.00,,,0.00,VWS V13.01,2013-01-26 03:31:00,
2013-01-25 22:36:00,30.6,15.9,29.44,WNW,299,4.0,4.9,54,0.00,,,0.00,VWS V13.01,2013-01-26 03:36:00,
2013-01-25 22:41:00,30.6,15.9,29.44,NW,304,5.4,5.4,54,0.00,,,0.00,VWS V13.01,2013-01-26 03:41:00,
2013-01-25 22:46:00,30.6,15.9,29.44,NW,319,4.9,4.9,54,0.00,,,0.00,VWS V13.01,2013-01-26 03:46:00,
2013-01-25 22:51:00,30.7,16.1,29.44,NW,309,7.6,8.1,54,0.00,,,0.00,VWS V13.01,2013-01-26 03:51:00,
2013-01-25 22:56:00,30.7,16.1,29.44,NW,304,4.0,5.8,54,0.00,,,0.00,VWS V13.01,2013-01-26 03:56:00,
2013-01-25 23:01:00,30.7,16.1,29.44,WNW,286,3.6,5.8,54,0.00,,,0.00,VWS V13.01,2013-01-26 04:01:00,
2013-01-25 23:06:00,30.7,16.1,29.44,NW,321,4.0,5.8,54,0.00,,,0.00,VWS V13.01,2013-01-26 04:06:00,
2013-01-25 23:11:00,30.9,16.2,29.44,WNW,298,4.0,5.8,54,0.00,,,0.00,VWS V13.01,2013-01-26 04:11:00,
2013-01-25 23:16:00,30.9,16.2,29.44,NW,310,5.4,5.8,54,0.00,,,0.00,VWS V13.01,2013-01-26 04:16:00,
2013-01-25 23:21:00,30.9,16.2,29.44,NW,304,8.1,8.7,54,0.00,,,0.00,VWS V13.01,2013-01-26 04:21:00,
2013-01-25 23:26:00,30.9,15.8,29.44,WNW,297,5.4,5.4,53,0.00,,,0.00,VWS V13.01,2013-01-26 04:26:00,
2013-01-25 23:31:00,30.9,15.8,29.44,NW,310,4.0,4.0,53,0.00,,,0.00,VWS V13.01,2013-01-26 04:31:00,
2013-01-25 23:36:00,30.9,15.8,29.44,NW,308,2.7,5.4,53,0.00,,,0.00,VWS V13.01,2013-01-26 04:36:00,
2013-01-25 23:41:00,30.9,15.4,29.44,NW,321,5.8,5.8,52,0.00,,,0.00,VWS V13.01,2013-01-26 04:41:00,
2013-01-25 23:46:00,30.9,15.4,29.44,NW,321,3.6,4.0,52,0.00,,,0.00,VWS V13.01,2013-01-26 04:46:00,
2013-01-25 23:51:00,30.9,15.4,29.44,WNW,303,4.9,4.9,52,0.00,,,0.00,VWS V13.01,2013-01-26 04:51:00,
2013-01-25 23:56:00,30.9,14.9,29.44,WNW,302,3.6,4.0,51,0.00,,,0.00,VWS V13.01,2013-01-26 04:56:00,